RH
19 19 22 24 22 21 20 18 17 18 16 14 15 17 17 17 17 17 18 17 16 15 15 15 15 15 15 16 16 15 16 14 12 13 15 18 15 11 10 11 12 12 12 14 13 17 21 20 17 11 11 12 16 20 15 12 20 42 53 43 37 37 31 23 19 20 19 19 20 18 20 31 35 33 31 32 33 31 31 29 26 24 24 23 22 21 19 18
19 19 22 24 22 20 19 17 17 17 17 15 14 15 17 17 17 17 17 16 16 15 16 15 14 14 13 14 15 14 15 15 12 13 14 13 10 8 9 10 11 10 11 13 13 17 19 16 15 10 12 17 19 21 18 16 24 34 44 40 32 31 24 15 16 16 15 17 17 19 28 36 37 34 32 36 40 37 36 33 28 26 23 21 20 20 19 18
19 20 23 24 21 20 19 18 18 17 16 16 14 13 15 16 16 17 16 15 14 14 15 16 14 12 12 12 13 13 15 16 13 14 13 10 9 7 9 10 9 10 10 12 14 16 15 14 14 11 17 21 16 19 20 22 28 32 38 36 27 24 18 14 18 17 15 15 15 19 31 39 36 33 34 38 40 39 41 38 32 29 25 23 22 21 20 19
19 20 23 23 21 20 19 18 17 17 16 15 15 13 13 14 15 15 15 15 12 13 15 16 14 11 11 10 12 12 15 19 15 13 13 9 9 7 9 10 8 10 9 11 14 15 15 15 12 15 24 25 22 23 22 24 30 32 32 29 23 20 19 17 16 16 16 15 14 15 29 40 36 33 36 39 42 42 41 37 33 29 24 25 24 22 21 21
19 20 22 23 21 19 18 18 16 17 16 14 15 14 12 13 14 14 14 12 9 12 15 17 16 14 13 13 16 15 18 23 14 11 13 10 8 7 10 10 9 9 8 10 13 13 15 16 14 21 29 28 33 35 23 20 27 30 25 20 20 19 18 17 15 18 17 15 16 16 29 40 37 38 37 38 43 42 37 35 33 26 23 25 23 23 22 23
19 20 22 22 20 19 18 18 16 16 15 13 14 15 14 13 13 13 11 9 8 12 14 17 16 13 11 13 16 16 21 22 13 12 14 10 8 7 10 9 8 9 8 8 10 11 13 15 17 24 33 30 31 33 24 20 29 30 20 17 19 17 16 14 15 19 16 16 17 19 30 39 41 44 39 36 41 39 34 33 32 26 23 22 21 23 23 25
19 19 22 22 20 18 18 18 16 15 15 14 14 14 14 13 12 11 10 9 8 11 13 15 15 12 12 15 14 13 20 18 13 14 13 11 8 8 10 7 8 8 9 10 10 12 12 15 16 22 37 36 26 28 25 21 31 34 22 18 17 16 15 12 16 18 16 16 18 24 32 39 44 44 38 37 39 37 34 30 28 26 23 21 24 26 24 24
19 19 21 21 19 18 18 17 15 14 14 15 14 13 13 12 11 10 10 10 9 10 12 12 12 13 15 19 17 15 18 15 13 14 12 11 7 8 9 6 8 8 11 14 13 14 13 17 17 22 35 34 27 27 28 28 34 35 23 18 16 15 15 13 16 17 16 17 20 29 34 37 39 37 37 35 33 32 30 28 26 26 24 26 29 29 26 25
18 18 20 20 18 18 17 16 15 14 14 15 14 13 12 12 12 10 9 10 11 11 12 12 11 12 13 16 18 16 14 13 13 13 12 12 8 8 8 7 8 9 13 15 16 16 16 19 17 21 26 28 29 26 33 37 31 27 23 21 15 11 14 14 15 16 16 16 22 32 36 34 30 31 35 31 28 26 24 24 24 24 24 28 30 28 25 25
17 18 18 18 17 18 17 15 16 15 15 16 14 13 13 14 13 9 8 10 11 11 11 11 10 13 13 13 15 14 13 13 13 12 13 13 9 7 8 9 7 10 14 14 17 17 20 21 15 19 24 28 29 24 33 35 26 24 26 28 20 12 14 16 16 16 17 16 21 33 36 31 29 35 37 29 25 23 22 23 22 23 24 25 27 25 22 23
18 18 17 17 17 17 16 16 15 15 15 15 14 12 12 13 12 9 9 9 9 9 9 9 8 9 10 13 16 14 12 13 12 12 14 13 9 9 9 9 9 12 14 14 16 14 18 18 16 24 27 27 27 23 26 26 26 25 23 30 24 15 15 16 18 17 18 17 21 33 36 35 38 42 35 25 24 21 22 23 22 23 23 23 24 24 23 24
18 17 16 16 17 17 16 16 15 14 14 13 13 12 12 12 11 9 9 9 10 11 11 12 13 13 11 13 15 14 12 12 12 12 13 13 10 9 10 9 10 12 12 13 13 12 14 13 18 29 29 29 28 27 25 21 28 28 28 33 26 24 22 15 18 18 18 18 21 30 39 48 47 39 29 23 22 21 22 23 23 23 22 23 25 25 26 25
17 17 16 16 17 17 17 16 15 14 13 12 11 11 10 9 10 10 9 10 11 11 11 11 13 15 15 16 14 12 12 11 12 12 12 13 10 8 9 8 8 11 12 13 12 10 11 11 16 22 32 40 31 26 28 24 29 34 34 33 31 39 35 20 18 20 20 19 25 29 37 52 47 33 27 23 21 21 23 23 23 23 22 24 25 26 28 26
17 17 16 17 17 17 17 15 15 14 13 11 10 10 10 9 10 9 8 10 11 12 13 13 13 14 16 17 13 11 12 11 11 12 12 12 12 11 10 8 8 10 11 12 12 11 10 11 14 18 31 40 30 28 33 28 29 37 43 45 46 44 36 30 23 22 23 20 28 34 41 53 46 34 28 21 21 22 23 24 22 23 22 24 26 27 29 27
19 18 17 17 17 17 16 15 15 13 13 11 9 9 10 10 9 8 10 11 11 14 16 17 15 18 21 16 10 11 11 11 11 12 13 12 13 13 11 10 8 9 11 11 12 13 12 12 16 22 26 31 37 41 41 39 43 47 49 54 56 43 36 37 25 22 25 21 32 42 48 54 45 36 29 21 21 21 23 23 22 23 22 24 26 26 28 27
19 17 16 16 16 15 14 15 14 12 12 11 10 11 11 11 10 10 11 12 14 14 16 16 11 17 24 15 9 12 11 11 12 11 13 12 13 15 13 10 8 8 10 11 12 14 14 15 22 26 26 30 42 51 56 59 64 63 51 46 47 37 36 40 30 30 32 26 33 38 42 48 44 37 29 22 21 21 23 23 22 23 22 23 23 23 25 26
17 15 14 15 14 13 13 13 12 13 13 13 13 13 13 12 11 10 11 12 13 11 12 11 9 16 20 14 10 13 12 12 11 11 12 12 13 15 14 11 10 8 9 13 13 12 15 21 27 29 31 34 36 50 66 63 61 66 60 53 48 35 34 43 40 38 40 35 32 34 38 43 43 38 29 24 22 22 24 24 23 23 22 24 23 23 23 24
15 13 14 14 12 11 11 12 13 14 14 14 14 14 14 13 11 11 14 17 14 15 15 12 16 21 17 14 14 14 13 12 11 12 12 13 13 13 14 14 12 7 12 20 18 17 23 27 30 31 35 38 36 45 53 46 47 57 58 57 56 43 36 43 41 36 40 38 33 36 41 42 41 38 32 27 23 22 24 23 24 23 23 25 24 24 24 26
13 13 14 12 10 10 11 13 13 13 14 14 16 19 19 17 16 15 15 18 21 25 23 20 26 24 15 14 15 14 12 11 12 12 13 14 14 13 13 15 17 19 27 32 24 24 29 31 36 40 41 43 43 45 39 35 42 49 52 52 49 42 40 43 39 36 38 35 35 37 37 41 42 39 36 30 24 22 24 24 24 25 24 24 25 26 28 31
13 13 13 10 10 10 11 12 11 12 12 11 15 25 31 31 27 26 27 26 28 29 23 22 24 19 15 15 15 15 13 12 12 13 15 15 14 15 17 22 28 37 48 46 33 27 28 37 44 40 40 41 41 46 42 39 43 46 48 46 44 43 42 40 34 38 39 36 43 41 34 41 42 40 38 31 27 24 25 26 25 26 25 25 27 29 33 34
13 13 12 10 10 10 10 11 14 18 18 17 20 30 42 46 32 26 34 31 25 25 21 19 17 15 16 15 15 17 16 14 12 15 16 15 18 19 25 36 36 37 46 47 40 31 26 36 42 32 32 36 39 48 47 44 46 45 42 37 42 45 40 36 34 42 39 36 48 43 37 45 41 40 40 33 30 26 25 26 26 27 27 28 30 32 38 39
12 12 11 10 10 10 11 12 17 24 29 29 28 33 42 44 31 23 30 30 24 21 20 19 17 17 15 14 16 17 17 17 14 16 16 17 22 24 34 42 34 29 37 44 45 41 34 35 34 31 38 45 47 47 42 44 49 48 45 42 44 45 44 45 42 43 37 35 49 43 38 47 40 36 37 33 31 27 28 28 26 28 26 29 33 34 40 42
11 11 10 10 10 10 12 14 16 23 30 26 23 29 32 31 28 25 28 34 32 26 25 25 22 21 19 16 17 16 17 19 19 19 19 23 26 31 43 43 37 35 34 39 40 37 35 31 30 37 46 47 46 46 43 44 48 47 45 42 42 42 45 48 42 40 38 41 49 39 38 49 42 34 33 33 32 31 37 36 31 33 32 31 32 36 41 39
10 10 9 9 10 11 13 15 16 18 21 18 17 25 28 26 25 25 32 41 38 30 28 25 21 22 21 17 18 18 19 20 23 22 19 27 33 35 39 40 49 49 37 41 41 35 32 25 30 47 51 46 46 50 48 41 42 49 46 35 36 39 40 44 46 46 44 47 46 33 39 52 45 38 35 36 36 32 37 38 35 38 39 38 38 39 42 38
9 9 10 10 11 11 12 15 16 16 17 15 17 22 21 21 18 17 32 43 38 32 28 23 21 21 18 18 20 23 25 24 22 21 20 25 33 39 37 37 49 51 45 51 48 43 38 28 32 44 48 54 52 44 39 37 41 53 52 36 32 38 41 46 51 51 52 54 45 34 47 57 48 43 40 39 39 34 36 38 37 39 38 40 43 41 39 37
9 9 9 10 11 12 14 19 18 19 23 18 17 20 15 17 17 16 36 51 42 34 31 25 22 20 18 20 24 27 32 31 21 18 23 23 26 37 40 41 47 45 45 51 45 40 39 39 47 47 45 53 53 41 35 38 42 46 44 35 36 41 44 49 50 51 58 56 41 35 46 51 46 44 41 42 44 39 38 39 38 38 38 41 45 41 38 35
10 10 10 11 13 13 17 24 19 21 31 23 13 15 14 16 15 16 37 50 40 32 31 27 21 19 22 22 28 30 26 27 22 17 24 22 21 34 43 49 51 45 47 49 41 37 40 46 54 55 49 46 44 39 36 35 36 37 33 32 42 42 40 47 45 50 58 50 42 41 38 43 46 43 42 43 44 43 40 40 39 37 39 45 46 43 41 35
10 12 11 11 13 12 15 18 13 20 33 24 12 15 18 16 16 29 41 34 27 25 26 29 21 18 28 28 30 35 27 27 27 18 22 21 19 34 44 45 48 48 51 50 37 34 41 42 47 52 47 38 32 31 35 35 33 39 38 38 45 43 43 48 47 55 55 44 51 50 35 44 50 41 44 46 41 44 42 39 42 41 42 48 49 48 43 33
10 10 10 10 9 11 14 13 14 25 26 15 12 17 16 14 25 45 42 24 28 32 27 32 21 19 40 42 37 43 36 32 32 24 25 23 18 32 41 39 47 49 47 55 54 45 39 39 47 49 37 32 29 30 39 37 32 41 45 43 43 42 48 51 50 52 47 47 59 48 31 44 53 41 43 47 43 45 43 42 48 50 51 52 51 49 39 30
9 9 9 9 10 10 12 12 16 24 19 12 16 16 15 28 42 43 27 18 33 39 37 36 25 29 52 48 37 46 43 38 40 38 38 32 24 36 43 39 50 50 44 59 66 53 45 50 55 47 35 32 30 35 44 40 38 42 44 43 40 43 47 48 53 48 41 59 67 45 30 41 54 49 41 46 53 53 49 49 54 55 54 54 51 47 36 29
10 10 9 10 16 15 16 21 18 15 16 15 15 16 26 44 49 35 20 23 34 38 41 43 40 45 54 42 32 43 50 44 44 46 48 44 36 41 44 40 50 58 59 65 60 50 55 62 59 48 42 38 34 40 47 46 47 42 40 42 43 49 48 46 61 57 49 66 62 37 32 40 52 53 40 46 59 59 56 52 52 53 51 52 52 45 36 32
10 13 11 12 18 16 22 33 21 12 19 16 18 37 50 45 37 32 28 30 33 35 39 42 45 46 47 43 36 43 47 37 41 49 49 52 51 47 45 45 50 52 54 57 51 50 59 59 53 49 44 36 34 41 44 48 51 43 39 47 53 58 56 55 67 65 57 63 52 33 36 46 48 43 39 49 57 56 58 53 49 52 51 51 50 40 35 36
12 17 15 14 18 15 22 26 16 16 20 16 32 60 59 37 31 36 35 34 33 36 42 44 44 43 43 39 35 44 41 29 40 47 41 52 60 52 49 53 53 46 44 47 42 46 58 55 45 44 41 34 33 36 35 40 47 41 36 48 60 57 56 61 64 63 62 55 42 31 39 54 49 38 41 48 48 50 54 54 52 52 50 49 45 36 35 35
15 17 15 18 19 17 21 18 18 24 17 26 55 58 34 25 33 36 35 39 41 45 52 49 42 43 42 33 30 42 40 32 45 49 44 53 55 48 50 55 54 50 53 50 39 39 49 49 43 40 37 34 33 34 33 37 44 42 36 47 61 55 54 65 61 60 64 55 43 37 48 64 53 42 47 43 44 51 52 55 57 55 53 47 39 32 29 29
19 18 15 18 18 19 22 20 23 21 17 47 68 47 28 30 35 37 40 45 47 52 57 52 45 43 41 40 40 42 40 37 43 48 50 51 45 41 43 46 49 55 59 50 40 41 44 44 44 40 36 33 31 34 39 40 39 41 42 48 59 55 55 67 64 56 56 60 64 57 59 63 44 38 46 41 43 50 50 54 55 55 54 43 34 30 26 28
22 22 18 16 17 21 22 24 25 16 33 70 62 41 49 43 32 45 51 45 45 52 53 46 44 42 37 42 45 41 40 40 40 41 44 45 43 42 44 47 47 52 59 52 42 42 44 46 43 38 38 34 29 34 40 38 33 38 47 46 45 44 47 60 67 64 62 70 71 57 53 53 42 43 45 38 42 44 47 53 49 47 44 32 28 28 27 29
18 22 19 12 16 21 19 25 23 15 48 79 53 41 55 40 34 60 64 50 48 53 49 37 36 37 33 36 40 39 38 39 37 34 34 40 43 44 49 54 48 44 51 56 52 42 43 52 48 41 39 33 37 44 42 38 36 37 43 41 40 47 53 57 63 71 79 82 70 54 55 55 52 56 45 36 43 42 42 46 39 36 32 25 25 24 23 27
16 24 26 15 13 17 19 21 18 26 59 73 49 40 45 38 45 66 71 59 49 45 41 36 38 36 31 31 34 35 34 33 33 32 33 39 41 43 49 51 49 46 45 55 60 49 48 54 48 45 42 36 44 48 41 42 44 41 42 44 47 58 66 62 61 71 80 81 73 63 63 60 62 72 58 40 44 41 37 38 31 28 27 24 24 20 20 24
19 35 38 18 10 17 21 17 20 45 65 56 43 41 43 54 64 71 77 69 54 43 34 35 39 33 32 37 35 36 37 33 31 32 33 36 37 42 47 45 49 53 51 53 53 50 56 54 45 47 43 35 40 43 43 46 46 47 47 45 49 59 66 63 62 69 72 78 83 74 65 59 64 75 60 40 40 38 34 34 30 27 27 25 22 16 16 21
29 47 40 14 12 21 23 22 32 63 69 47 47 52 52 66 74 74 79 73 60 44 32 35 36 30 36 42 38 42 44 37 34 35 35 38 40 43 48 49 48 52 56 53 45 47 56 51 49 53 44 38 44 41 42 45 45 52 53 48 50 57 63 62 60 64 67 75 87 84 72 56 47 49 43 35 38 37 32 32 28 28 27 25 21 15 14 18
33 48 41 17 13 17 27 35 39 61 66 46 49 59 60 69 74 76 83 83 72 51 40 45 40 35 42 40 36 42 41 35 36 37 36 37 38 41 54 63 58 55 55 51 46 50 50 46 53 58 47 46 48 35 34 42 45 53 60 60 64 69 68 64 64 69 70 75 81 80 75 57 37 34 35 35 36 32 31 30 27 29 29 24 19 16 17 19
38 45 36 16 10 15 36 52 54 72 73 51 50 59 63 68 67 69 75 76 69 55 48 52 48 45 47 43 43 46 42 36 34 35 38 42 46 53 67 74 68 63 59 52 49 50 51 53 56 57 49 43 41 35 40 48 43 39 44 48 60 73 67 60 71 79 74 74 74 75 77 60 39 37 36 33 33 29 29 29 28 30 27 22 19 17 19 20
52 45 26 15 15 23 41 51 59 78 74 57 57 59 59 63 59 59 64 61 56 50 50 56 52 42 40 44 45 42 41 38 35 38 41 49 60 71 82 83 68 59 56 53 51 49 54 59 55 58 57 45 37 36 40 46 36 31 39 42 50 67 66 65 78 79 75 76 69 74 83 61 38 39 35 30 33 31 31 31 28 28 26 22 19 14 15 16
59 44 33 22 13 20 39 50 59 69 65 58 58 54 53 59 58 56 59 58 52 45 48 55 50 39 43 52 48 43 40 32 33 40 39 47 65 77 92 93 70 56 57 60 59 50 48 51 50 59 64 50 43 41 44 50 38 31 44 48 50 66 70 67 70 67 72 75 66 77 86 56 36 41 35 30 36 35 34 34 28 27 27 23 18 14 13 13
47 39 42 34 21 25 42 62 73 72 67 59 51 50 52 52 59 64 61 60 57 49 48 51 49 50 55 53 45 45 44 33 33 40 37 51 74 84 93 92 79 72 70 71 70 59 56 56 49 56 63 57 55 53 54 61 51 40 45 44 47 62 62 59 69 74 76 73 68 78 77 46 31 38 35 33 38 36 36 35 30 28 27 25 19 14 12 12
41 39 45 44 42 48 53 66 72 65 68 64 44 46 55 50 55 64 58 53 54 52 49 48 49 52 52 51 47 45 47 43 38 38 37 50 73 88 93 88 86 87 79 73 71 63 65 65 52 54 61 56 54 50 46 50 48 44 46 45 52 62 57 59 74 77 76 77 71 65 59 47 39 36 34 34 35 35 36 36 33 30 28 26 20 14 14 14
41 41 51 46 41 49 52 59 66 60 66 65 39 37 55 55 50 51 46 49 56 54 48 47 47 42 42 52 51 46 52 51 42 37 39 50 70 85 90 86 85 88 82 77 73 63 62 64 57 56 57 49 47 45 42 46 45 43 47 51 59 67 63 60 64 61 62 72 65 47 47 55 47 35 34 35 33 35 36 36 35 31 30 27 19 17 23 20
38 43 54 45 36 41 39 44 61 62 57 58 46 43 55 55 51 50 44 47 57 52 40 42 48 49 53 56 47 45 51 46 42 42 38 46 65 72 76 80 83 89 84 71 67 63 59 65 67 62 57 52 49 46 43 45 44 43 48 51 56 69 71 62 57 54 53 58 54 42 44 51 44 35 35 34 33 36 36 37 35 30 29 25 16 15 19 17
42 46 47 47 47 48 43 48 63 60 51 55 52 46 52 51 51 55 48 44 53 52 45 44 47 57 65 57 44 47 48 36 36 47 45 45 56 62 67 74 82 91 82 59 55 58 57 67 73 65 60 54 46 46 47 49 52 51 51 50 49 61 70 64 55 51 51 54 50 43 46 48 41 37 36 33 35 38 38 35 32 30 30 26 19 16 16 16
41 42 39 49 54 49 48 53 58 50 42 46 43 40 52 55 51 54 50 45 46 45 47 48 52 64 67 54 46 47 49 43 33 39 49 46 45 56 63 66 81 96 82 57 53 53 52 66 71 61 58 52 42 48 53 53 56 52 45 44 44 51 61 65 62 58 58 61 54 50 60 58 43 37 39 39 40 40 38 34 31 32 32 27 23 20 19 19
38 39 37 49 48 39 43 47 52 50 37 34 38 38 45 53 58 57 52 53 55 49 50 54 60 68 61 51 54 51 54 62 49 44 57 50 40 50 52 51 72 90 79 63 60 54 50 66 74 64 59 52 44 50 50 46 52 56 52 50 47 49 55 59 61 62 61 61 58 60 66 57 41 37 40 41 41 39 37 35 34 34 31 29 26 24 23 23
30 28 40 64 52 33 41 43 41 42 38 44 52 46 42 56 65 53 36 50 68 64 62 66 67 70 61 53 60 60 63 70 60 55 64 54 44 52 55 56 68 79 77 67 62 62 59 64 69 63 61 60 52 49 48 48 53 57 60 59 50 46 50 49 49 51 50 49 53 57 52 41 33 35 37 36 36 36 36 36 37 35 32 29 27 26 25 24
Wind_Speed
5 5 6 8 9 9 10 10 10 10 8 8 9 9 8 8 7 6 5 5 6 5 5 3 2 1 1 1 3 5 9 16 27 33 25 20 23 20 17 16 17 18 13 8 7 8 7 5 8 6 2 2 3 3 5 4 4 5 4 5 4 3 3 2 2 1 2 2 5 6 7 7 3 4 7 9 14 11 11 10 9 11 12 14 16 18 20 21
5 5 6 8 8 8 8 8 10 10 8 7 8 9 8 7 5 4 3 3 3 2 2 4 4 3 3 2 3 5 5 12 25 28 24 22 21 17 15 16 18 18 15 9 7 9 6 2 5 4 4 3 4 4 5 4 4 5 4 5 3 3 2 3 4 1 2 2 4 6 7 8 3 2 5 7 7 8 11 8 8 10 10 15 19 22 23 23
5 6 6 7 7 7 7 6 8 9 8 7 7 8 7 6 4 2 2 4 3 1 3 5 5 6 6 4 5 5 4 9 19 18 23 24 19 16 16 18 18 19 16 10 8 8 6 7 8 4 6 4 4 5 5 4 4 4 4 5 2 5 4 3 4 3 3 4 4 6 7 9 6 4 5 9 8 8 8 5 6 8 8 9 14 20 22 22
5 6 6 7 7 7 6 6 8 8 8 6 6 8 8 6 4 3 4 4 4 3 3 3 4 4 4 4 5 5 4 6 8 12 23 24 19 17 16 18 19 17 16 11 6 7 9 12 7 4 6 4 4 5 5 3 3 4 4 5 4 6 5 2 4 4 4 6 5 3 7 9 5 6 3 8 9 7 4 4 6 9 9 8 10 17 20 21
5 6 6 6 7 6 6 6 7 7 7 6 6 8 8 5 5 4 3 7 6 3 3 4 5 7 6 2 5 6 2 5 5 15 24 22 19 17 15 19 18 14 14 12 6 6 6 9 3 6 5 4 4 5 5 3 5 4 3 6 6 6 5 4 5 5 4 6 6 4 7 6 2 7 5 8 9 3 2 4 7 9 9 10 11 15 18 18
5 6 6 6 6 5 5 6 6 7 7 7 8 9 8 7 6 4 7 6 4 5 5 8 12 17 16 11 7 4 5 3 8 17 22 21 19 16 15 17 16 13 14 15 15 15 9 4 5 5 4 4 5 5 4 5 6 5 3 5 6 6 6 4 4 6 6 8 6 3 6 5 6 7 5 8 9 5 5 7 10 11 13 15 14 15 16 15
5 5 6 5 5 5 6 5 7 9 11 12 11 10 9 8 6 7 9 8 6 6 7 8 11 16 15 14 17 15 8 1 11 18 20 19 19 15 15 16 17 18 19 22 20 12 9 10 7 4 5 4 4 4 3 6 7 6 3 3 6 7 6 4 5 7 8 9 5 5 7 5 8 7 3 7 8 6 9 12 15 15 17 17 14 13 14 15
5 5 5 4 4 5 6 6 7 11 14 14 12 11 10 7 5 7 10 9 7 6 5 5 4 6 5 4 9 11 6 5 15 19 17 17 19 15 14 16 18 21 24 25 19 10 7 9 6 3 5 3 3 3 3 6 7 5 3 3 5 5 6 6 6 7 7 7 7 10 8 4 8 9 5 7 7 6 9 13 15 15 15 14 11 11 13 14
5 5 5 4 4 5 7 6 6 8 10 11 10 10 8 6 5 7 9 9 10 10 7 3 2 4 2 1 4 5 4 9 15 17 15 16 17 13 14 18 18 21 23 23 23 18 9 5 4 5 6 2 4 4 3 5 2 1 2 2 5 6 5 6 7 6 5 5 9 12 8 8 10 9 5 5 7 7 9 10 10 11 10 8 8 10 12 11
5 5 5 4 4 5 7 6 6 6 6 7 7 7 7 6 6 7 9 11 13 15 14 11 5 5 5 2 5 5 5 10 15 16 12 13 14 13 16 18 17 19 20 21 24 19 9 4 2 7 8 3 4 4 4 5 2 2 3 4 4 7 5 4 6 5 5 6 8 11 8 8 7 3 4 5 7 8 8 7 6 7 7 6 8 10 12 11
5 6 5 5 4 5 6 6 5 5 5 5 4 4 4 5 6 8 10 10 11 13 15 17 15 18 21 13 8 4 6 10 15 16 10 9 13 15 16 15 16 19 19 18 21 18 13 9 4 6 5 3 3 4 4 4 2 2 3 5 3 4 3 4 6 4 3 5 5 11 9 5 1 2 6 7 7 8 8 7 5 6 6 6 7 8 11 11
5 5 6 6 5 5 6 5 5 6 4 3 3 3 4 4 5 7 7 6 6 7 7 7 4 9 20 18 7 2 7 12 14 15 9 7 12 15 13 13 15 19 20 17 20 22 18 15 14 8 1 3 3 3 3 2 2 1 5 5 4 5 4 3 4 3 5 3 3 10 4 3 3 2 8 8 8 8 8 7 6 6 5 5 6 6 8 9
6 5 6 6 6 6 5 5 6 6 5 4 3 3 4 4 4 4 4 5 7 10 9 7 1 1 7 9 4 6 10 12 13 14 10 6 8 12 12 12 14 18 22 20 20 26 23 18 17 9 3 6 2 0 2 3 4 3 4 4 3 6 4 3 1 3 6 2 3 8 0 5 1 4 7 8 9 9 7 6 6 5 5 5 5 5 6 9
6 6 6 6 5 5 6 6 7 6 6 6 6 7 8 8 6 5 7 7 8 9 9 8 5 5 7 3 2 11 12 12 15 17 13 6 5 7 8 9 11 13 17 18 20 25 26 23 18 9 5 5 1 0 3 4 5 4 4 3 4 5 5 7 2 5 5 1 4 8 2 5 4 6 7 8 9 10 7 7 6 5 5 5 5 5 5 9
6 6 6 5 5 7 7 7 6 6 7 7 7 7 7 8 7 6 7 7 4 3 4 6 4 5 7 3 1 8 13 15 17 18 14 8 5 5 5 5 7 9 11 12 11 16 23 26 20 7 4 4 3 4 4 3 4 4 3 3 4 3 5 9 3 4 3 2 4 8 1 4 4 8 8 8 9 9 8 7 6 6 6 6 5 6 5 8
7 6 5 5 7 8 7 6 6 6 6 5 4 3 2 4 6 8 9 9 7 4 5 8 7 9 6 1 1 5 10 13 16 17 11 7 6 6 6 3 3 6 11 14 9 9 15 17 12 6 4 6 5 4 4 5 4 4 3 1 4 3 4 6 3 1 4 2 4 5 1 3 4 7 8 8 9 8 8 7 7 7 6 6 5 5 5 6
8 5 4 7 8 8 7 7 8 9 9 9 8 7 7 5 3 5 5 8 10 9 10 9 7 9 5 2 1 4 8 11 15 17 11 6 5 6 6 2 0 1 6 16 16 10 9 7 4 4 5 6 4 4 5 5 4 4 3 0 3 3 4 4 5 5 5 4 6 3 2 3 3 7 8 8 9 8 7 7 7 6 6 6 5 5 5 5
7 6 7 10 11 13 15 16 16 15 14 14 14 14 15 14 8 6 6 5 2 4 8 10 8 6 3 4 2 7 10 10 14 17 11 5 4 6 6 3 2 1 3 9 13 9 5 4 4 3 4 6 6 7 5 1 3 4 4 3 4 4 5 5 5 5 6 6 6 5 1 2 4 6 7 7 9 8 8 7 6 6 6 5 5 5 5 4
6 8 11 14 17 19 18 15 12 9 6 5 5 5 7 10 12 15 20 14 4 2 2 6 6 4 0 3 5 10 9 7 12 17 17 11 7 8 6 3 2 3 4 3 6 6 3 4 5 4 5 6 5 5 4 4 6 7 7 4 4 6 4 6 7 4 5 7 5 4 3 5 6 6 7 7 7 8 7 6 5 6 5 5 5 4 4 4
6 10 14 17 18 15 10 6 4 4 3 3 3 2 1 2 6 9 15 15 7 4 5 1 4 4 1 3 8 11 5 4 11 19 23 17 8 8 8 7 6 6 4 2 2 5 4 7 6 3 3 4 5 1 1 4 5 5 4 2 4 6 5 6 7 7 5 5 5 5 2 6 7 7 7 6 6 7 7 6 6 6 5 5 5 5 5 4
7 11 15 17 14 7 6 7 7 4 2 2 3 1 2 2 4 1 2 7 6 6 8 4 4 4 1 2 10 13 2 2 13 21 27 18 5 5 7 6 7 6 4 3 3 4 5 8 4 1 2 3 4 3 4 5 2 2 2 2 4 5 7 8 6 7 5 4 7 5 1 5 6 6 6 6 6 6 7 7 6 6 6 5 5 6 5 4
8 12 15 17 9 4 9 10 6 2 2 1 3 5 4 5 9 8 4 5 5 9 9 5 5 4 2 4 12 11 1 4 12 18 26 20 8 5 4 5 7 4 5 3 4 5 6 6 4 5 2 2 3 3 6 6 3 2 3 3 3 3 6 8 5 5 5 2 6 5 2 5 5 4 5 5 5 4 5 7 7 6 6 5 5 5 5 5
10 14 17 16 5 6 9 8 4 2 2 5 9 11 9 10 12 9 5 6 1 5 5 4 5 5 4 5 10 10 5 6 6 11 21 16 6 5 3 5 7 5 6 6 4 4 5 2 6 5 4 4 3 5 8 7 4 3 2 2 3 3 1 4 4 6 8 3 5 5 3 4 3 2 3 4 3 2 2 4 5 5 5 6 6 5 4 5
14 17 18 14 2 6 7 6 3 4 4 9 13 12 11 11 9 5 4 5 1 2 1 1 1 3 2 3 8 6 5 4 2 7 16 10 2 3 3 3 5 5 4 6 7 7 4 4 4 5 6 5 4 4 7 6 5 3 1 2 4 5 2 5 5 7 8 5 2 2 4 4 3 5 5 4 2 2 2 3 4 4 5 6 5 4 5 5
16 18 17 9 3 6 5 3 3 6 6 8 11 11 10 8 4 1 3 4 3 2 2 1 1 1 1 5 8 1 4 4 2 5 10 7 3 2 2 1 4 4 3 6 8 6 2 3 2 6 7 6 6 3 2 3 4 5 4 4 5 6 6 7 6 6 6 5 2 3 4 5 4 7 8 4 2 4 3 4 6 6 6 6 5 5 5 5
13 16 13 7 6 4 3 1 2 4 4 4 8 10 7 3 1 2 3 4 3 3 2 1 1 2 3 7 8 1 4 3 1 6 9 7 4 2 3 2 2 3 3 4 4 2 1 4 5 5 5 6 5 1 1 3 5 4 4 4 5 5 6 7 6 4 2 3 4 3 1 5 3 6 8 5 5 6 5 6 8 7 6 6 5 5 5 4
10 12 11 8 6 4 2 1 2 2 1 3 7 7 3 2 2 3 3 4 3 2 1 1 0 3 3 7 7 3 3 3 2 7 9 9 6 2 4 4 2 1 1 3 2 1 1 5 7 6 4 4 4 3 3 3 4 5 7 6 6 7 9 9 5 3 2 4 5 2 2 3 4 4 4 6 5 7 7 8 8 8 7 6 6 5 4 4
9 9 9 7 5 5 3 1 3 3 1 4 8 5 2 2 1 3 5 3 2 0 1 2 1 3 3 7 10 5 1 2 2 5 7 11 10 3 4 2 3 0 2 4 1 2 0 2 1 1 3 3 2 3 4 2 2 7 10 8 7 7 10 9 4 4 2 2 5 4 2 2 6 3 2 4 4 7 9 10 9 9 8 7 6 5 4 4
6 7 6 6 5 6 5 3 4 3 2 5 8 4 1 1 2 4 5 1 1 1 0 1 1 4 4 6 8 5 2 2 2 4 7 9 11 5 4 1 5 3 3 5 4 3 1 1 4 4 3 2 3 6 5 4 3 8 9 10 8 5 6 5 3 3 2 2 4 5 2 2 5 3 1 1 4 7 8 8 8 7 7 6 6 5 5 5
3 3 4 4 4 5 5 4 4 4 2 6 8 3 0 1 3 5 2 2 1 1 1 2 2 3 6 6 5 5 5 3 1 4 5 5 10 8 3 1 3 4 3 6 3 2 1 1 2 3 2 2 4 6 5 7 5 5 7 8 8 5 2 0 1 2 3 3 5 5 3 2 3 4 3 3 5 6 5 4 5 6 6 7 6 5 5 5
3 1 1 2 4 4 4 2 4 4 5 7 7 2 1 3 4 5 1 2 1 1 1 3 3 4 6 4 2 5 4 5 4 4 5 5 8 8 4 3 4 4 4 5 4 3 4 4 2 1 1 0 2 4 3 2 1 6 5 4 5 5 3 3 4 4 2 5 5 4 2 3 2 5 4 5 5 6 6 5 7 7 8 7 6 5 5 5
6 4 2 1 3 4 2 2 3 6 7 7 5 2 4 3 2 1 2 2 1 1 1 1 2 3 4 3 2 4 3 4 4 4 3 3 5 5 5 3 1 3 4 3 4 4 3 2 2 3 2 1 2 3 5 5 5 6 5 4 4 4 4 4 4 2 1 5 5 1 6 2 6 7 5 6 7 7 7 7 8 8 9 8 6 5 5 5
9 7 4 2 2 3 3 3 5 6 6 6 3 4 6 4 1 3 2 1 0 1 1 1 1 2 2 3 3 3 1 2 4 4 2 3 4 3 3 3 2 2 1 2 3 5 4 4 2 2 3 2 3 3 3 4 4 5 4 3 3 3 5 5 4 3 3 5 5 3 5 1 6 6 6 8 8 10 9 8 8 8 9 7 5 5 5 5
10 8 5 5 4 4 5 5 6 7 5 4 3 5 5 2 3 1 1 2 2 1 1 1 2 3 3 2 1 2 2 1 2 4 3 3 4 2 3 6 5 3 1 2 2 2 2 4 2 1 2 1 3 3 4 2 2 4 1 4 3 2 2 2 2 2 5 7 8 5 1 4 4 4 7 8 7 7 7 8 8 7 7 5 5 5 4 4
8 8 7 7 6 5 5 5 5 5 3 2 5 5 3 4 3 2 2 4 2 1 1 1 3 4 3 2 1 1 1 1 1 4 4 3 2 1 1 4 4 3 3 2 1 1 0 4 4 1 1 2 1 2 3 3 2 3 2 4 1 2 3 2 4 5 3 6 6 2 2 5 4 4 3 2 3 5 6 7 6 6 6 4 4 4 3 3
7 8 7 7 6 4 3 3 3 2 1 4 6 2 3 3 2 3 3 2 3 3 2 2 3 3 1 2 2 3 1 1 1 2 3 2 2 1 1 1 2 3 4 3 0 1 1 4 3 0 3 1 2 2 1 1 1 1 2 1 2 3 5 2 4 4 1 2 5 3 4 5 3 4 3 1 3 6 6 6 7 7 6 4 4 4 3 4
5 6 5 7 6 2 1 2 2 1 2 6 4 3 3 2 2 3 1 0 2 3 5 2 1 2 1 1 2 3 1 1 1 1 0 0 1 2 2 1 0 1 2 3 1 1 1 3 5 2 0 3 2 2 3 1 2 2 1 2 2 2 3 3 2 4 3 1 5 3 5 7 5 4 4 3 6 8 7 7 7 6 5 5 5 5 5 5
2 3 3 6 5 2 1 1 1 2 5 6 2 2 1 1 2 2 1 0 1 3 4 3 1 1 3 2 2 3 1 0 1 1 1 1 0 2 4 1 0 1 3 2 1 1 3 2 6 1 3 2 2 5 3 3 2 3 2 2 3 2 1 1 1 2 2 3 6 5 6 5 3 4 4 5 7 8 8 6 5 6 6 5 5 5 5 5
2 2 2 5 5 3 2 0 1 4 5 4 1 2 1 1 1 0 1 0 1 3 2 3 2 1 2 3 3 2 1 1 1 1 1 1 1 2 3 2 1 1 2 2 3 1 2 2 4 3 2 0 2 3 1 3 3 3 2 2 1 3 3 1 1 1 1 2 4 6 7 5 5 6 5 7 9 8 7 5 6 8 7 6 6 5 5 5
2 2 2 4 3 4 3 2 3 6 4 2 3 2 1 0 2 2 0 0 1 1 1 3 2 2 2 2 3 2 1 2 2 1 1 1 1 1 2 2 3 2 1 3 3 0 2 2 3 5 3 0 1 1 4 4 1 1 1 1 1 0 1 1 1 2 3 2 1 4 8 9 6 4 6 9 9 7 7 6 7 7 7 7 6 5 5 5
2 2 3 4 1 1 3 5 4 4 4 2 2 1 1 1 1 2 2 0 0 1 1 3 3 3 3 2 2 2 1 2 2 1 1 1 1 0 1 2 3 3 1 4 2 0 1 1 2 3 4 2 3 3 4 5 5 5 3 3 3 2 2 1 3 2 2 3 4 1 6 12 7 3 6 8 7 6 7 7 7 6 7 7 6 5 5 5
3 2 3 4 0 1 4 5 3 2 4 2 1 1 1 2 2 1 2 1 1 1 0 2 2 2 2 2 2 2 2 1 1 1 1 2 2 1 1 1 2 3 3 2 1 1 1 2 0 4 5 4 4 3 1 2 2 3 2 2 3 4 5 3 3 3 1 2 3 3 3 10 6 5 6 6 6 6 6 7 7 6 6 6 6 5 5 5
3 3 3 5 1 1 6 4 3 4 2 1 1 1 1 2 2 0 1 1 0 0 2 1 0 1 1 2 2 3 2 1 2 2 1 1 1 1 0 2 2 2 3 2 1 1 0 2 0 4 5 3 3 3 3 3 3 0 2 2 4 3 4 5 5 3 1 3 3 3 4 10 5 4 6 5 6 5 6 7 6 5 5 5 6 6 5 5
2 2 1 5 3 1 3 2 1 1 1 1 2 2 1 1 2 2 1 1 0 0 1 0 1 0 1 1 3 2 2 1 1 1 1 2 1 1 3 3 1 1 1 2 2 0 1 1 1 3 6 5 3 4 5 4 0 3 3 2 4 5 7 4 3 3 1 5 6 4 5 10 6 4 5 5 5 6 7 6 5 5 5 5 5 5 5 5
2 1 2 4 5 4 2 4 5 4 3 2 3 1 0 2 0 2 2 1 1 1 2 1 0 2 2 2 3 2 0 1 0 0 1 1 0 1 2 2 1 2 1 1 2 2 1 2 2 2 2 4 5 5 5 3 2 3 1 3 4 6 9 5 2 3 2 5 6 6 7 13 13 7 4 6 8 9 9 5 5 6 5 5 5 4 5 5
2 1 2 4 6 5 2 1 5 6 4 4 2 2 3 2 2 1 2 1 1 1 2 0 0 3 3 3 3 1 1 1 1 1 1 1 1 2 1 2 1 2 3 2 2 3 2 1 3 5 5 5 6 7 4 2 3 7 5 4 5 6 8 6 4 3 5 3 4 9 12 15 22 20 13 12 11 10 9 6 6 6 6 6 5 5 5 5
1 1 1 1 3 3 4 3 4 4 4 5 3 2 4 3 1 1 1 0 1 1 2 0 1 2 2 3 3 1 1 1 2 1 2 3 1 2 0 3 2 3 4 2 1 3 3 2 5 6 9 10 9 11 9 5 7 11 11 7 7 8 8 8 8 9 4 3 7 13 9 9 20 22 18 19 16 12 10 10 8 7 6 5 5 5 6 5
1 1 2 1 1 0 2 1 3 5 3 4 2 1 4 4 2 2 1 1 1 0 1 0 2 4 6 5 3 2 2 1 1 2 2 3 2 1 1 0 1 2 4 1 1 3 4 3 5 4 8 11 10 12 12 8 9 10 11 11 8 9 12 14 17 14 6 4 15 17 10 11 18 22 22 20 16 13 13 11 7 6 5 5 5 5 6 6
2 1 0 1 1 3 2 1 4 6 5 4 2 1 5 6 5 4 2 2 2 2 1 2 5 6 6 4 4 4 4 2 2 3 3 3 3 2 1 1 1 1 2 2 1 1 3 3 5 3 7 11 10 12 12 8 7 9 12 13 10 11 16 17 19 15 11 14 21 21 21 21 21 22 22 19 14 12 12 8 5 6 6 6 6 6 7 7
1 2 1 3 3 1 1 2 4 5 2 2 1 2 4 7 6 4 2 4 2 3 2 3 6 5 5 4 4 4 6 6 4 4 5 5 2 3 3 3 3 2 1 2 1 1 1 3 3 2 5 10 7 7 7 5 6 11 16 15 10 10 13 14 15 12 9 15 21 18 18 20 20 17 15 13 11 8 8 7 7 7 7 6 7 7 8 8
2 3 4 4 2 2 2 1 4 4 0 1 2 3 3 6 8 4 1 2 4 4 5 6 5 3 2 2 4 6 7 6 6 6 8 7 3 4 3 3 6 5 3 4 2 1 2 2 2 4 3 7 3 4 8 8 8 12 17 17 13 9 8 9 10 9 9 13 15 11 9 14 15 10 7 9 9 8 9 9 8 8 7 7 8 8 8 8
3 2 3 5 2 1 1 0 2 2 2 3 3 3 3 5 7 6 2 1 1 3 4 6 6 4 3 3 7 7 5 6 6 5 5 4 2 3 3 3 7 7 6 5 2 2 4 2 1 3 1 6 4 7 10 10 8 8 10 10 9 8 7 7 8 10 13 11 8 7 10 14 13 9 10 13 12 11 11 9 8 8 7 7 8 9 8 8
Wind_Direction
74 94 103 90 73 67 70 70 75 83 103 133 142 142 138 128 125 112 96 79 77 73 69 51 17 345 239 80 23 42 37 29 36 35 32 7 351 356 357 358 2 4 3 351 9 354 308 264 257 270 334 347 26 1 2 9 21 50 73 76 90 88 57 97 95 111 128 6 352 8 37 71 86 99 118 80 63 82 80 72 80 81 81 82 86 82 74 72
81 103 107 90 75 71 73 73 73 73 85 116 139 152 157 151 148 123 95 48 43 15 19 349 331 274 265 281 307 360 15 20 33 29 14 4 3 7 9 11 5 359 358 351 359 346 324 285 289 341 43 40 16 6 9 5 30 56 94 76 98 128 88 121 122 109 70 51 20 27 60 68 352 297 96 73 58 82 88 77 84 84 74 74 75 74 74 74
90 112 112 92 81 73 72 68 65 62 64 91 132 152 156 157 162 133 73 43 47 12 5 342 312 271 279 278 279 322 321 14 34 16 356 2 7 10 15 16 11 3 357 349 341 331 314 297 303 5 65 56 17 32 32 10 35 52 92 78 121 141 110 101 97 75 62 68 52 36 69 66 1 343 85 100 81 66 86 100 102 98 93 86 79 78 77 74
95 117 119 98 85 75 71 59 55 53 48 72 121 142 147 152 153 110 82 33 7 358 5 342 309 294 295 276 275 297 317 28 31 346 347 357 3 9 17 16 14 8 3 2 333 315 299 289 304 49 77 47 2 44 34 360 58 48 81 103 151 140 107 114 109 82 73 69 50 34 84 82 34 22 69 123 90 52 76 123 130 124 121 110 94 89 85 81
101 120 126 103 87 78 75 66 57 46 35 61 114 136 142 143 134 100 19 335 342 31 55 63 70 69 60 354 260 257 13 51 333 336 347 351 1 10 16 17 17 15 22 31 12 2 319 283 339 61 72 44 5 31 10 354 84 70 68 105 125 122 117 168 140 91 80 67 38 36 89 110 99 36 36 106 105 130 143 119 122 122 122 117 111 105 97 92
108 122 125 106 94 87 80 74 58 41 42 77 110 125 132 133 122 57 2 354 37 84 84 88 87 87 79 63 84 121 98 92 310 336 344 348 5 14 21 21 23 32 48 51 41 45 38 7 49 57 62 59 54 54 352 355 72 97 65 82 102 107 118 158 130 96 74 56 35 62 103 115 102 66 33 84 104 145 129 112 108 106 113 114 113 111 105 102
117 127 127 116 105 99 89 81 65 63 75 90 101 108 116 129 104 45 35 50 84 102 88 88 93 99 92 67 69 75 90 87 326 341 342 356 14 18 29 30 35 51 57 47 36 41 44 43 55 78 75 65 72 63 13 19 51 91 101 97 113 115 113 104 110 109 74 57 50 76 95 108 111 104 67 85 104 122 114 110 106 106 109 108 106 106 107 109
120 131 134 127 114 110 105 101 88 81 82 86 92 98 108 123 90 46 47 60 91 102 80 73 103 129 118 61 65 65 67 332 337 346 347 9 22 21 37 38 45 57 54 45 38 35 40 43 42 86 83 71 91 49 31 48 38 66 107 128 127 128 117 95 93 103 79 65 72 72 74 96 116 115 106 114 125 126 118 112 109 109 106 104 104 106 109 110
118 136 140 129 117 119 115 109 107 96 83 80 88 100 105 102 72 50 57 75 89 86 77 85 188 206 213 220 99 70 7 333 345 353 358 15 20 27 48 42 45 56 52 45 41 41 45 35 18 92 111 111 83 45 32 74 43 27 100 115 138 124 95 84 76 88 85 55 77 85 85 115 120 106 99 138 143 131 119 110 110 110 104 106 107 109 111 108
120 142 136 128 124 119 118 111 108 104 91 84 92 107 97 76 65 64 77 88 89 85 79 81 106 139 130 114 80 70 330 345 2 359 3 17 19 36 52 45 48 55 53 46 40 38 36 10 1 108 104 89 76 52 43 88 125 236 90 76 132 122 95 92 76 67 73 45 80 113 132 151 154 110 115 175 155 130 118 113 115 112 114 116 112 113 113 111
132 144 139 136 133 118 116 113 107 106 105 94 96 101 74 60 74 86 96 97 96 94 86 83 86 85 82 75 76 73 346 4 13 5 7 23 28 38 44 47 54 56 57 48 36 30 25 22 57 108 87 72 81 54 43 80 113 214 118 67 28 89 90 90 70 44 77 44 85 126 142 170 262 56 146 172 151 133 128 132 131 123 130 124 120 121 118 120
145 148 145 140 135 127 119 115 113 113 113 97 90 71 34 48 95 104 104 106 101 99 103 100 92 67 65 63 65 30 11 19 14 10 18 37 41 42 45 59 64 61 61 52 36 36 39 43 63 79 95 109 96 53 41 29 62 120 116 95 356 21 44 58 60 51 98 54 81 116 117 325 358 103 158 156 142 138 133 139 143 135 142 134 131 131 131 139
154 146 134 131 133 133 123 118 117 115 112 94 79 61 51 75 109 115 91 108 108 94 93 81 87 203 64 57 38 29 28 24 20 21 31 57 53 44 50 69 75 68 65 65 54 48 50 52 66 78 77 93 111 168 90 20 30 39 67 93 19 21 1 296 359 48 91 96 65 100 163 296 258 175 166 154 143 138 138 151 154 147 152 148 147 151 156 162
143 134 121 121 128 125 120 122 117 115 109 92 86 82 79 77 85 100 91 106 113 98 91 69 73 103 81 101 69 38 25 22 31 26 25 49 61 42 44 62 74 75 71 72 68 56 50 51 63 75 48 67 134 62 73 29 31 26 17 45 48 44 308 290 335 50 69 177 64 84 207 256 215 190 171 162 151 144 154 166 161 161 165 165 168 170 182 184
123 123 120 123 130 123 124 128 117 112 111 102 97 88 72 61 72 96 93 99 103 106 98 67 86 97 72 100 100 25 11 16 26 19 14 24 36 24 16 39 59 65 61 60 73 62 49 48 54 56 354 8 42 54 49 22 27 30 26 345 1 43 304 303 311 80 71 284 53 76 195 251 208 196 179 165 157 152 162 173 171 173 177 182 186 187 199 203
123 124 130 132 126 124 133 139 126 113 109 109 101 79 31 39 82 101 92 83 68 77 91 70 94 108 85 58 331 356 2 8 11 11 13 20 28 8 350 9 52 53 52 46 62 71 51 52 58 54 24 15 32 65 57 26 360 7 71 240 297 359 326 316 304 105 86 355 2 68 169 253 208 192 184 172 165 159 161 177 179 179 190 191 197 205 202 214
124 124 138 132 124 126 132 126 119 112 104 105 97 83 72 59 122 142 107 90 74 78 81 53 69 97 73 14 345 326 338 351 0 10 16 15 22 4 346 319 295 54 60 42 42 43 37 48 65 53 42 29 25 62 60 23 336 327 31 306 276 336 329 313 303 313 39 26 333 12 153 239 207 177 183 183 168 159 165 179 183 186 199 198 206 213 212 225
121 126 137 131 123 115 108 103 102 104 103 102 96 89 83 75 91 103 78 115 125 74 67 21 26 84 36 358 337 307 318 340 360 10 16 8 352 349 340 294 286 18 61 30 28 27 22 35 68 82 44 30 27 55 74 309 259 265 302 311 298 329 323 291 287 308 11 10 328 341 13 213 194 174 187 195 168 159 172 178 186 195 196 205 217 219 230 238
127 135 139 131 120 110 103 100 95 94 102 110 106 97 83 68 72 63 53 64 73 55 65 341 9 98 15 315 312 315 321 346 7 13 15 6 348 359 10 346 339 69 67 28 7 13 40 49 53 57 17 5 7 68 114 229 229 232 255 253 286 317 307 275 280 295 356 355 313 296 271 198 192 190 195 197 165 158 176 178 188 197 197 211 221 230 240 250
136 141 143 134 121 108 98 84 31 353 299 251 241 268 258 48 52 37 36 51 67 104 119 2 34 77 29 294 327 344 344 11 22 16 10 1 347 12 23 13 24 50 59 117 36 357 45 64 54 50 349 320 317 348 101 278 238 226 246 240 299 312 296 279 292 304 352 3 281 267 256 191 190 195 194 189 158 158 177 181 191 197 205 217 223 245 250 256
139 143 146 141 128 92 38 18 4 353 329 265 231 159 174 134 88 142 3 46 36 57 87 80 75 80 27 320 354 2 351 18 19 12 9 8 10 25 5 7 40 33 354 146 105 359 43 67 40 288 239 276 305 314 360 344 298 229 161 107 350 314 291 290 288 297 354 21 280 281 139 194 203 196 194 185 170 180 186 185 197 202 208 219 224 244 256 267
142 148 152 152 144 27 9 10 14 59 54 77 119 103 119 120 119 144 142 83 18 29 62 58 57 52 351 20 9 6 59 30 12 3 5 11 28 43 6 31 64 42 344 41 72 15 43 55 316 288 313 17 1 13 21 8 5 35 105 95 355 300 297 305 292 301 344 25 281 285 193 218 230 207 210 206 188 196 196 184 191 197 208 228 234 246 264 284
145 153 157 162 164 356 4 7 15 49 52 121 112 102 112 115 126 138 108 101 17 359 36 27 43 26 351 27 15 15 53 42 11 348 357 5 25 46 51 56 62 52 22 41 75 66 59 350 289 306 358 50 48 27 29 17 13 29 71 74 303 282 348 306 298 316 317 276 251 283 278 255 255 251 263 249 205 174 189 179 182 192 205 227 238 245 255 279
147 156 162 170 200 352 2 6 33 58 74 119 112 110 124 124 133 137 96 94 63 310 323 310 102 52 351 1 3 20 65 49 53 339 352 11 34 20 64 97 68 56 57 70 80 88 110 249 294 1 5 68 84 27 39 36 355 322 220 174 290 299 250 243 278 319 317 295 256 333 320 281 225 222 242 251 230 185 190 191 217 233 226 235 256 257 256 281
154 163 168 182 285 339 352 4 86 93 97 116 114 121 129 132 153 106 81 77 21 298 313 286 189 44 316 346 350 30 109 53 69 348 353 27 34 13 70 127 83 79 131 97 81 88 126 258 12 26 2 43 72 21 56 80 358 318 245 226 277 296 271 266 303 340 349 326 319 45 338 290 217 210 229 234 232 230 225 217 231 250 244 244 258 254 269 292
165 175 183 217 278 307 323 339 122 112 107 124 131 138 134 129 142 32 82 67 2 293 339 254 196 2 332 346 341 170 82 13 304 11 16 26 12 101 72 345 68 105 168 119 87 102 24 345 36 48 20 32 49 359 252 86 30 328 272 263 284 299 287 290 317 347 11 286 292 77 90 281 260 226 229 202 210 236 243 235 235 244 245 240 235 241 273 293
182 195 209 239 259 261 278 288 208 179 122 172 159 150 144 110 71 46 71 46 344 265 22 273 227 15 332 350 1 117 81 314 292 16 25 23 356 101 77 8 46 30 192 108 38 310 10 14 26 30 34 41 28 341 292 76 61 291 286 306 309 311 302 299 306 278 231 272 305 38 124 270 288 263 219 171 202 247 246 242 244 243 241 235 231 251 283 289
197 211 221 237 248 244 254 286 212 211 260 191 173 156 132 107 32 44 82 69 311 91 42 281 334 15 340 12 31 95 161 311 60 349 358 27 14 49 83 61 136 8 359 103 110 270 73 54 42 4 25 38 15 290 267 100 94 268 283 302 300 294 286 286 278 249 258 338 307 318 39 284 273 285 68 133 206 255 249 237 238 236 232 230 238 262 279 275
194 209 222 235 243 240 240 245 225 233 266 183 167 155 134 43 5 54 81 150 296 44 28 302 5 338 348 18 25 49 26 13 105 302 331 26 16 33 90 107 141 127 16 83 148 220 166 163 186 158 62 357 278 262 239 168 218 271 296 306 302 283 262 255 225 220 23 16 262 272 10 341 280 274 83 129 228 251 249 236 230 227 224 227 241 251 253 265
161 194 219 230 225 222 221 229 235 240 221 176 167 169 252 7 60 67 52 240 69 18 262 34 15 333 18 36 360 8 28 3 332 335 350 26 13 23 83 357 88 105 26 42 86 214 285 316 195 135 119 249 276 280 231 191 226 306 331 316 314 322 327 105 161 116 70 307 251 213 155 81 309 276 201 189 219 215 212 229 236 233 235 239 241 236 245 263
78 109 194 218 208 205 202 212 224 207 176 163 165 160 26 23 65 93 224 252 55 309 345 23 345 3 35 64 3 349 15 342 336 22 16 14 11 10 27 7 26 62 22 12 20 331 339 357 317 270 246 262 335 318 287 219 342 1 344 324 338 338 5 29 3 49 82 279 245 190 112 83 237 265 239 218 228 198 181 209 228 231 239 242 238 235 248 249
55 50 40 209 196 198 192 181 186 175 161 154 152 87 72 45 20 163 248 324 9 290 85 16 308 28 33 60 34 333 345 341 353 53 47 37 38 23 43 51 345 27 7 336 345 337 320 291 283 299 301 19 36 349 338 350 19 14 344 3 20 354 7 8 342 11 239 252 226 169 22 24 228 254 241 222 230 214 202 211 215 222 232 234 233 242 249 233
47 39 31 64 156 178 158 156 163 156 150 144 119 52 77 87 265 220 256 337 269 256 108 106 7 76 67 50 15 318 350 345 349 39 88 94 71 46 42 45 64 56 318 290 352 354 330 304 329 353 318 13 76 71 349 329 351 352 345 34 51 30 10 341 315 331 290 263 264 333 17 277 266 277 221 212 221 213 211 213 211 217 223 222 221 233 238 221
48 42 44 69 96 128 130 139 149 141 140 133 83 51 74 152 240 195 246 254 227 354 66 113 36 46 58 73 276 307 46 330 336 29 31 54 54 23 352 356 17 58 79 41 21 34 356 309 289 140 287 9 80 147 171 195 298 299 236 98 93 108 63 303 276 295 294 289 296 324 7 216 276 279 212 211 220 212 213 216 216 227 225 214 221 238 235 211
54 49 53 66 78 99 118 135 139 133 146 112 66 65 119 218 234 166 203 230 204 57 11 38 72 59 18 359 299 330 90 251 352 41 26 51 85 65 353 329 347 45 83 66 333 153 153 270 239 195 350 78 83 228 157 135 279 272 124 87 59 187 149 175 234 232 264 303 296 289 216 217 237 261 242 221 224 220 225 226 230 245 238 222 242 266 251 211
52 47 50 52 55 71 104 134 130 123 139 82 68 94 200 222 216 169 186 183 152 153 136 39 68 90 322 311 335 347 18 244 27 48 19 66 131 145 136 244 324 51 102 122 15 14 341 277 243 140 11 72 195 240 106 107 273 339 50 82 232 177 133 132 280 284 48 322 282 283 286 290 316 301 295 325 261 249 246 242 237 237 232 230 257 274 246 218
43 43 39 30 27 41 110 148 137 90 74 82 95 205 214 212 190 176 191 153 155 135 116 103 78 142 196 242 294 306 340 304 339 76 291 58 111 139 137 189 304 102 148 143 153 190 145 293 264 187 229 266 209 100 46 74 120 79 84 211 185 87 88 108 300 333 40 270 274 287 283 296 327 310 288 282 269 265 258 246 240 238 232 238 258 264 242 221
47 45 23 12 12 19 64 118 128 82 70 75 98 232 198 166 188 167 173 174 136 93 101 146 189 174 182 172 232 266 289 287 324 83 165 208 282 141 139 155 5 233 224 143 90 182 116 324 287 201 146 270 10 54 8 322 59 99 164 167 100 79 2 6 346 340 359 310 295 290 281 276 242 243 262 247 244 257 262 253 249 247 236 236 250 251 240 226
61 49 357 353 10 35 39 124 105 67 66 81 178 236 158 156 285 239 177 234 123 101 119 193 181 108 183 166 177 236 236 181 194 86 147 188 250 136 135 164 166 248 259 120 124 220 101 110 283 320 90 216 21 59 246 290 349 29 36 20 53 137 165 190 177 170 210 301 302 307 314 293 226 211 229 245 250 257 257 250 244 239 228 226 238 238 229 220
73 71 328 338 38 62 47 84 72 57 67 124 189 193 105 175 287 308 295 234 204 148 162 201 165 123 183 176 168 192 157 162 172 141 176 161 125 121 128 144 148 162 339 43 93 172 54 126 250 308 339 312 305 216 189 193 190 54 44 270 286 31 120 197 221 169 153 154 226 304 310 289 257 205 215 250 263 248 227 229 235 229 220 220 226 225 221 217
70 92 310 334 46 41 32 62 52 59 99 110 137 136 84 159 183 314 302 42 187 224 184 163 156 151 163 158 175 184 139 151 165 126 230 193 93 140 198 147 152 162 85 41 49 27 44 164 225 295 312 273 240 218 194 196 182 161 176 196 184 134 98 27 298 278 123 148 179 202 295 283 271 195 212 241 245 224 212 224 236 226 217 223 224 219 215 210
76 124 309 344 270 277 47 65 14 42 107 117 140 139 118 129 116 309 297 17 48 241 31 106 141 127 131 153 181 164 118 132 191 142 214 200 151 184 200 115 134 143 118 98 270 244 158 115 160 271 274 255 240 233 204 220 173 145 168 168 146 133 125 141 249 256 192 211 187 128 267 273 254 176 206 223 211 211 206 211 227 226 217 221 222 221 215 208
107 176 326 20 65 32 65 69 340 22 62 255 263 3 39 108 114 120 307 359 17 270 20 37 165 83 136 172 149 141 134 150 185 176 181 181 170 215 356 51 79 94 94 125 199 293 90 92 62 275 285 294 287 303 332 19 50 73 239 165 148 153 143 155 176 171 190 233 191 130 248 269 261 189 209 214 198 213 217 212 220 226 226 223 220 225 217 209
138 194 349 30 17 11 81 146 205 66 277 293 48 354 327 79 106 125 202 261 196 119 82 163 256 105 167 125 101 143 185 134 118 159 159 158 161 322 4 14 37 95 99 174 172 200 265 155 99 325 326 334 343 335 331 346 27 233 240 181 155 122 104 114 120 90 304 228 179 154 243 263 264 180 185 220 238 257 256 231 216 221 231 230 226 228 216 207
83 10 307 6 23 57 122 177 149 140 194 136 96 209 58 39 69 164 167 204 215 163 145 209 280 102 90 58 67 66 67 97 236 347 77 110 236 316 354 348 2 104 122 192 138 121 178 192 134 92 350 319 312 308 313 309 246 240 196 164 166 135 134 150 121 97 251 226 166 171 241 272 286 276 240 252 260 272 276 250 227 233 234 230 230 229 216 207
86 11 300 335 14 55 70 106 110 123 168 147 127 201 140 92 285 222 123 137 217 127 112 228 91 85 65 65 78 43 326 27 50 123 143 176 255 286 169 129 71 114 136 125 105 103 92 252 217 185 197 229 251 259 277 342 289 278 267 213 189 175 166 147 115 177 209 189 203 227 237 272 289 290 293 292 283 282 287 278 257 246 237 236 234 225 216 209
110 182 185 312 343 34 26 19 84 115 167 150 136 191 154 145 279 322 36 236 200 107 76 91 150 133 153 140 129 201 209 69 65 152 185 176 181 318 124 125 100 139 145 131 112 110 88 289 247 212 225 238 250 263 278 300 278 271 272 249 196 179 173 166 197 217 168 86 270 253 223 245 278 288 295 297 297 299 298 292 276 252 238 237 227 216 221 219
103 179 146 136 233 82 31 17 117 110 110 114 98 136 149 155 184 190 226 339 336 129 105 185 241 205 188 174 152 169 175 128 223 208 183 155 148 19 4 69 222 169 141 75 341 117 118 256 244 206 246 254 252 264 270 268 261 257 259 254 223 188 182 196 222 227 180 210 259 267 265 262 274 284 287 289 296 300 295 289 273 247 232 223 218 224 234 236
80 97 5 14 150 179 219 270 115 105 100 98 87 161 166 173 198 211 185 77 352 290 171 211 257 230 203 193 139 148 188 192 218 226 186 165 173 148 150 257 238 171 130 111 282 149 128 243 239 212 279 274 253 257 261 252 260 266 258 250 230 204 198 208 230 232 215 235 253 267 278 277 273 275 280 287 293 289 287 284 256 240 237 227 228 242 249 248
114 158 181 49 59 144 297 8 95 101 90 88 113 220 181 172 192 215 170 130 166 255 191 210 245 222 196 191 144 173 217 187 174 210 174 149 194 192 186 201 157 127 167 166 226 260 169 258 240 137 314 291 261 259 268 247 256 275 276 269 245 222 217 221 237 238 226 246 256 264 275 276 272 269 273 280 283 281 280 270 252 248 242 232 238 248 253 253
136 152 147 104 59 333 336 28 102 109 115 275 192 210 204 193 192 180 148 160 170 183 184 196 209 166 119 187 197 226 237 188 172 199 177 161 194 199 190 185 143 138 188 194 179 182 182 265 333 60 350 285 274 347 320 298 279 272 276 273 256 232 221 219 227 217 204 233 258 272 272 269 272 274 269 270 273 273 270 262 257 255 239 230 245 252 251 248
130 112 120 102 81 301 212 91 72 116 203 243 194 182 218 224 196 157 128 291 142 150 184 184 166 121 96 216 226 229 221 185 177 191 178 152 119 118 128 147 141 141 167 178 168 170 161 170 15 67 297 271 314 346 319 315 316 282 259 246 229 221 228 237 238 220 207 215 246 260 255 264 282 296 291 288 286 279 271 262 254 254 241 230 240 247 247 244